CAPELLA-2 (46269 NORAD) Tracking and Keplerian Element Data

This shows tracking and keplerian element data for the satellite.

Feedback or suggestion? Click here.




ElementValue
Catalog46269
NameCAPELLA-2
Epoch Orbit1387
Epoch Day335.94504861
Epoch Year2020
RAAN204.4935
Inclination45.0969
Eccentricity0.0010039
Argument of Perigee65.2119
Mean Anonmoly294.9856
Mean Motion15.09821439
Decay Rate6.265E-05
L11 46269U 20060B 20335.94504861 .00006265 00000-0 39592-3 0 9995
L22 46269 45.0969 204.4935 0010039 65.2119 294.9856 15.09821439 13870

Live tracking and technical data element details for CAPELLA-2 (NORAD 46269). CAPELLA-2 can be tracked NOW for your location showing map with azimuth and elevation plus other details from your city location.

Track the satellite on the map from your city or location and see movement details for azimuth, elevation, latitude, longitude, range, height, and movement on the map or in text.







IsCatalogInMostPopularTable: catalog: 46269, numindb: 18
Update: records affected: 1



GetName: 46269 CAPELLA-2

Hit Count: updated at: Tue, 01 Dec 2020 21:19:01 GMT